Content
SEND FEEDBACK

Daily
Averages
Monthly
Summary
United States of America

DES PLAINES, ILLINOIS


Home > North America > United States > Illinois
Elevation: 651 feet     Latitude: 42 00N     Longitude: 087 54W

WEATHER
 
SELECT A DAY
Number of Records: 197,818;   Date Range: 7/8/95 - 10/20/14
 
SHARE

PRINT THIS DATA

[ ← Previous Day ]
WEATHER ALMANAC - DECEMBER 22, 2013
[ Next Day → ]
[ °C ]   °F
Weather ElementAverageHighLow
Temperature30.2 °F33.8 °F (12:42 am)24.1 °F (10:52 pm)
Dewpoint26.6 °F30.9 °F (12:52 am)19 °F (10:52 pm)
Humidity86.4 %96 % (7:52 am)80 % (4:57 pm)
Barometer29.83 in30.14 in (11:52 pm)29.61 in (5:29 am)
Wind Speed9.7 mph17.3 mph (3:52 am)
Wind Gust25.3 mph (2:31 am)
Weather ElementAverage
Visibility5.6 mi
Wind DirectionWSW (256.3 °)

Weather ElementTotal
Precipitation0.18 in
Heating Degree Days36.1 (Base 65)
Averaged from 52 records on December 22, 2013
WEATHER CONDITIONS BREAKOUT
WIND DIRECTION BREAKOUT
WEATHER BY HOUR - DECEMBER 22, 2013
[ °C ]   °F
Local TimeTemperatureDewpointHumidityBarometerVisibilityWind DirectionWind SpeedGust SpeedPrecipitationEventsConditions
12:42 AM33.8 °F30.2 °F87 %29.65 in3.0 miNE (40°)11.5 mph18.4 mph0.02 inRainLight Rain
12:52 AM33.1 °F30.9 °F92 %29.67 in3.0 miNE (50°)11.5 mph0.02 inRainLight Rain
1:52 AM33.1 °F30.9 °F92 %29.66 in4.0 miNNE (30°)15.0 mph23.0 mph0.02 inOvercast
2:31 AM33.8 °F30.2 °F87 %29.63 in4.0 miNNE (30°)11.5 mph25.3 mph0.01 inRainLight Freezing Rain
2:52 AM33.1 °F30.0 °F89 %29.66 in3.0 miNNE (30°)12.7 mph23.0 mph0.01 inRainLight Freezing Rain
3:02 AM33.8 °F30.2 °F87 %29.64 in3.0 miNE (40°)12.7 mph21.9 mph0.01 inRainLight Rain
3:16 AM33.8 °F30.2 °F87 %29.63 in3.0 miNNE (20°)16.1 mph24.2 mph0.03 inRainLight Freezing Rain
3:52 AM33.1 °F30.0 °F89 %29.64 in5.0 miNNE (30°)17.3 mph25.3 mph0.04 inRainLight Freezing Rain
4:52 AM32.0 °F30.0 °F92 %29.63 in4.0 miNE (40°)13.8 mph20.7 mph0.00 inRainLight Freezing Rain
5:29 AM32.0 °F30.2 °F93 %29.61 in5.0 miNE (40°)10.4 mph21.9 mph0.00 inOvercast
5:52 AM33.1 °F30.0 °F89 %29.64 in8.0 miNNE (30°)12.7 mph18.4 mph0.00 inOvercast
6:38 AM33.8 °F30.2 °F87 %29.69 in1.8 miNorth (350°)4.6 mph0.00 inSnowLight Snow
6:50 AM33.8 °F30.2 °F87 %29.69 in1.0 miNNW (340°)4.6 mph0.00 inSnowLight Snow
6:52 AM33.1 °F30.9 °F92 %29.70 in1.0 miNNW (340°)4.6 mph0.00 inSnowLight Snow
6:56 AM32.0 °F30.2 °F93 %29.68 in1.2 miNorth (350°)5.8 mph0.00 inSnowLight Snow
7:15 AM32.0 °F30.2 °F93 %29.68 in1.2 miNorth (360°)5.8 mph0.00 inSnowLight Snow
7:27 AM32.0 °F30.2 °F93 %29.71 in1.2 miWNW (300°)5.8 mph0.00 inSnowLight Snow
7:33 AM32.0 °F30.2 °F93 %29.70 in0.8 miNNW (340°)6.9 mph0.00 inSnowLight Snow
7:45 AM32.0 °F30.2 °F93 %29.69 in0.8 miNNW (340°)5.8 mph0.00 inSnowLight Snow
7:52 AM32.0 °F30.9 °F96 %29.71 in0.8 miNNW (340°)6.9 mph0.00 inSnowLight Snow
8:16 AM32.0 °F30.2 °F93 %29.71 in1.2 miNW (320°)10.4 mph0.00 inSnowLight Snow
8:29 AM32.0 °F30.2 °F93 %29.72 in2.5 miNW (310°)6.9 mph0.00 inSnowLight Snow
8:38 AM32.0 °F30.2 °F93 %29.73 in4.0 miNW (310°)8.1 mph0.00 inOvercast
8:52 AM32.0 °F30.0 °F92 %29.75 in4.0 miNW (320°)9.2 mph0.00 inSnowLight Snow
9:09 AM32.0 °F28.4 °F87 %29.74 in3.0 miNW (310°)8.1 mph0.00 inSnowLight Snow
9:16 AM32.0 °F28.4 °F87 %29.75 in2.5 miNW (310°)12.7 mph0.00 inSnowLight Snow
9:32 AM32.0 °F30.2 °F93 %29.74 in3.0 miNNW (330°)10.4 mph0.00 inOvercast
9:52 AM32.0 °F30.0 °F92 %29.77 in5.0 miNNW (330°)10.4 mph0.00 inOvercast
10:52 AM33.1 °F28.9 °F85 %29.80 in10.0 miNNW (330°)10.4 mphOvercast
10:59 AM33.8 °F28.4 °F81 %29.78 in10.0 miNNW (330°)8.1 mphOvercast
11:52 AM30.9 °F27.0 °F85 %29.81 in10.0 miNW (320°)11.5 mph0.02 inOvercast
12:52 PM30.9 °F26.1 °F82 %29.82 in10.0 miNW (310°)10.4 mphOvercast
1:52 PM30.9 °F26.1 °F82 %29.87 in10.0 miNW (320°)5.8 mphOvercast
2:52 PM30.0 °F26.1 °F85 %29.90 in10.0 miWNW (300°)10.4 mphOvercast
3:52 PM28.9 °F24.1 °F82 %29.94 in10.0 miNW (310°)11.5 mphOvercast
4:52 PM28.0 °F23.0 °F81 %29.98 in10.0 miNW (310°)11.5 mphOvercast
4:57 PM28.4 °F23.0 °F80 %29.95 in10.0 miNW (320°)11.5 mphOvercast
5:52 PM27.0 °F21.9 °F81 %30.00 in10.0 miNW (310°)10.4 mphOvercast
6:52 PM26.1 °F21.0 °F81 %30.03 in10.0 miWNW (300°)12.7 mphOvercast
7:25 PM26.6 °F21.2 °F80 %30.03 in10.0 miWNW (290°)8.1 mphOvercast
7:52 PM26.1 °F21.0 °F81 %30.05 in7.0 miWNW (290°)11.5 mphOvercast
8:06 PM26.6 °F21.2 °F80 %30.03 in10.0 miNW (310°)9.2 mphOvercast
8:17 PM26.6 °F21.2 °F80 %30.04 in10.0 miWNW (300°)8.1 mphOvercast
8:27 PM26.6 °F21.2 °F80 %30.04 in10.0 miWNW (300°)8.1 mphOvercast
8:52 PM25.0 °F21.0 °F85 %30.07 in6.0 miNW (310°)10.4 mph0.00 inSnowLight Snow
9:09 PM24.8 °F19.4 °F80 %30.05 in6.0 miWNW (300°)11.5 mph0.00 inSnowLight Snow
9:28 PM24.8 °F19.4 °F80 %30.06 in8.0 miWNW (300°)5.8 mph0.00 inOvercast
9:52 PM25.0 °F19.9 °F81 %30.09 in7.0 miNW (310°)11.5 mph0.00 inSnowLight Snow
10:01 PM24.8 °F19.4 °F80 %30.07 in5.0 miNW (310°)10.4 mph0.00 inSnowLight Snow
10:15 PM24.8 °F19.4 °F80 %30.08 in4.0 miWNW (290°)6.9 mph0.00 inSnowLight Snow
10:52 PM24.1 °F19.0 °F81 %30.12 in8.0 miWNW (290°)8.1 mph0.00 inOvercast
11:52 PM24.1 °F19.0 °F81 %30.14 in8.0 miWNW (290°)6.9 mph0.00 inSnowLight Snow
Hourly data recorded from KPWK, located miles away from Des Plaines, Illinois







STORIES FROM OUR PARTNERS